Regional Weather Roundup
Issued by NWS

Home | Current Version | Previous Version | Text Only | Print | Product List | Glossary Off
Versions: 1 2 3 4 5 6 7 8 9 10 11 12 13 14 15 16 17 18 19 20 21 22 23 24 25 26 27 28 29 30 31 32 33 34 35 36 37 38 39 40 41 42 43 44 45 46 47 48 49 50

000
ASUS43 KBIS 050502
RWRND

NORTH DAKOTA REGIONAL WEATHER ROUNDUP
NATIONAL WEATHER SERVICE BISMARCK ND
1200 AM CDT THU MAY 05 2016

NOTE: "FAIR" INDICATES FEW OR NO CLOUDS BELOW 12,000 FEET WITH NO
SIGNIFICANT WEATHER AND/OR OBSTRUCTIONS TO VISIBILITY.


NDZ001>003-009>011-017-050600-
NORTHWEST NORTH DAKOTA

CITY           SKY/WX    TMP DP  RH WIND       PRES   REMARKS
WILLISTON      CLEAR     52  43  71 CALM      29.86S
MINOT          CLEAR     72  42  34 S15       29.86F
MINOT AFB      CLEAR     65  44  46 S14       29.84F
$$

NDZ018>021-031>035-040>046-050600-
SOUTHWEST NORTH DAKOTA

CITY           SKY/WX    TMP DP  RH WIND       PRES   REMARKS
BISMARCK       CLEAR     56  46  69 CALM      29.95S
DICKINSON      CLEAR     55  42  61 S10       29.93S
GARRISON         N/A     58  43  57 SE5       29.90S
HETTINGER ARPT CLEAR     58  42  55 S9        29.99S
$$

NDZ004>008-012>016-024-026-027-054-050600-
NORTHEAST NORTH DAKOTA

CITY           SKY/WX    TMP DP  RH WIND       PRES   REMARKS
GRAND FORKS    CLEAR     55  30  38 S8        29.90F
GRND FRKS AFB  PTCLDY    55  28  35 S9        29.90F
DEVILS LAKE    CLEAR     61  41  47 S8        29.90F
$$

NDZ022-023-025-028>030-036>039-047>053-050600-
SOUTHEAST NORTH DAKOTA

CITY           SKY/WX    TMP DP  RH WIND       PRES   REMARKS
FARGO          PTCLDY    57  28  33 S7        29.94F
JAMESTOWN      CLEAR     58  35  42 S12       29.93F
$$




USA.gov is the U.S. government's official web portal to all federal, state and local government web resources and services.